User: anonymous   Login
Location: Mactaquac Provincial Park
(45.9573°N, 66.8897°W)
Time: 19:30:46
(UTC-04:00)
Language:

CENTAUR R/B - Orbit

View from above orbital plane
View from above orbital plane
View from above satellite
View from above satellite

Ground track
Ground track

The orbit data is extracted from the following two-line orbital elements,

1 26906U 01040B   14351.27647011 0.00000100  00000-0  13827-3 0    08
2 26906  63.4635 151.9600 0272000 344.3306  15.6694 13.43934892    05
Epoch (UTC): 17 December 2014 06:38:07
Eccentricity: 0.0272000
inclination: 63.4635°
perigee height: 891 km
apogee height: 1298 km
right ascension of ascending node: 151.9600°
argument of perigee: 344.3306°
revolutions per day: 13.43934892
mean anomaly at epoch: 15.6694°
orbit number at epoch: 0

The dashed part of the orbit path shows where the satellite is in the earth's shadow,  

DLR